Weather History for Fort Payne, AL

Change the Weather History Date:

Wednesday, October 2, 2013

  Actual Average (KRMG) Record (KRMG)
Temperature  
Mean Temperature 68 °F 66 °F  
Max Temperature 80 °F 78 °F 90 °F (2002)
Min Temperature 57 °F 54 °F 43 °F (1999)
Degree Days  
Heating Degree Days 0 2  
Month to date heating degree days 4  
Since 1 July heating degree days 18  
Cooling Degree Days 4 3  
Month to date cooling degree days 6  
Year to date cooling degree days 1596  
Growing Degree Days 18 (Base 50)    
Moisture  
Dew Point 59 °F    
Average Humidity 74    
Maximum Humidity 94    
Minimum Humidity 45    
Precipitation  
Precipitation 0.00 in 0.14 in 0.10 in (2004)
Month to date precipitation 0.29  
Snow  
Snow 0.00 in - - ()
Month to date snowfall  
Since 1 July snowfall  
Since 1 September snowfall  
Snow Depth -    
Sea Level Pressure  
Sea Level Pressure 30.13 in    
Wind  
Wind Speed 0 mph (SW)    
Max Wind Speed 5 mph    
Max Gust Speed -    
Visibility 9 miles    
Events      
T = Trace of Precipitation, MM = Missing Value Source: NWS Daily Summary

Daily Weather History Graph

Daily Weather History Graph

Search for Another Location

Airport:

Trip Planner

Search our weather history database for the weather conditions in past years. The results will help you decide how hot, cold, wet, or windy it might be!

Date:

Astronomy

Oct. 02, 2013 Rise Set
Actual Time 6:38 AM CDT 6:25 PM CDT
Civil Twilight 6:13 AM CDT 6:50 PM CDT
Nautical Twilight 5:44 AM CDT 7:19 PM CDT
Astronomical Twilight 5:14 AM CDT 7:48 PM CDT
Moon 4:15 AM CDT (10/2) 4:57 PM CDT (10/2)
Length of Visible Light 12h 37m
Length of Day
11h 46m
Waning Crescent, 6% of the Moon is Illuminated
Oct 2
Waning Crescent
Oct 4
New
Oct 11
First Quarter
Oct 18
Full
Oct 26
Last Quarter

Hourly Weather History & Observations

Time (CDT) Temp. Heat Index Dew Point Humidity Pressure Visibility Wind Dir Wind Speed Gust Speed Precip Events Conditions
12:15 AM 60.8 °F - 59.0 °F 94% 30.13 in 7.0 mi Calm Calm - N/A   Clear
12:35 AM 59.0 °F - 55.4 °F 88% 30.13 in 5.0 mi Calm Calm - N/A   Clear
12:55 AM 60.8 °F - 57.2 °F 88% 30.13 in 7.0 mi Calm Calm - N/A   Clear
1:15 AM 59.0 °F - 55.4 °F 88% 30.13 in 7.0 mi Calm Calm - N/A   Clear
1:35 AM 59.0 °F - 55.4 °F 88% 30.13 in 7.0 mi Calm Calm - N/A   Clear
1:55 AM 59.0 °F - 55.4 °F 88% 30.13 in 4.0 mi Calm Calm - N/A   Clear
2:15 AM 59.0 °F - 55.4 °F 88% 30.13 in 3.0 mi Calm Calm - N/A   Clear
2:35 AM 59.0 °F - 55.4 °F 88% 30.13 in 7.0 mi Calm Calm - N/A   Clear
2:55 AM 59.0 °F - 55.4 °F 88% 30.13 in 7.0 mi Calm Calm - N/A   Clear
3:15 AM 59.0 °F - 55.4 °F 88% 30.12 in 7.0 mi Calm Calm - N/A   Clear
3:35 AM 57.2 °F - 55.4 °F 94% 30.12 in 10.0 mi Calm Calm - N/A   Scattered Clouds
3:55 AM 57.2 °F - 55.4 °F 94% 30.13 in 7.0 mi Calm Calm - N/A   Scattered Clouds
4:15 AM 59.0 °F - 55.4 °F 88% 30.13 in 10.0 mi Calm Calm - N/A   Mostly Cloudy
4:35 AM 59.0 °F - 55.4 °F 88% 30.13 in 10.0 mi Calm Calm - N/A   Overcast
4:55 AM 59.0 °F - 55.4 °F 88% 30.13 in 10.0 mi Calm Calm - N/A   Mostly Cloudy
5:15 AM 59.0 °F - 55.4 °F 88% 30.13 in 10.0 mi Calm Calm - N/A   Scattered Clouds
5:35 AM 59.0 °F - 55.4 °F 88% 30.14 in 10.0 mi Calm Calm - N/A   Mostly Cloudy
5:55 AM 59.0 °F - 55.4 °F 88% 30.14 in 10.0 mi Calm Calm - N/A   Scattered Clouds
6:15 AM 59.0 °F - 55.4 °F 88% 30.15 in 10.0 mi Calm Calm - N/A   Scattered Clouds
6:35 AM 59.0 °F - 55.4 °F 88% 30.15 in 7.0 mi Calm Calm - N/A   Scattered Clouds
6:55 AM 59.0 °F - 55.4 °F 88% 30.16 in 7.0 mi Calm Calm - N/A   Scattered Clouds
7:15 AM 59.0 °F - 55.4 °F 88% 30.16 in 7.0 mi Calm Calm - N/A   Mostly Cloudy
7:35 AM 60.8 °F - 57.2 °F 88% 30.17 in 10.0 mi Calm Calm - N/A   Mostly Cloudy
7:55 AM 60.8 °F - 59.0 °F 94% 30.17 in 10.0 mi Calm Calm - N/A   Scattered Clouds
8:15 AM 62.6 °F - 60.8 °F 94% 30.18 in 10.0 mi Calm Calm - N/A   Clear
8:35 AM 64.4 °F - 60.8 °F 88% 30.18 in 10.0 mi Calm Calm - N/A   Clear
8:55 AM 68.0 °F - 62.6 °F 83% 30.18 in 10.0 mi Calm Calm - N/A   Clear
9:15 AM 69.8 °F - 62.6 °F 78% 30.18 in 10.0 mi Calm Calm - N/A   Clear
9:35 AM 71.6 °F - 60.8 °F 69% 30.18 in 10.0 mi Calm Calm - N/A   Clear
9:55 AM 73.4 °F - 62.6 °F 69% 30.18 in 7.0 mi Calm Calm - N/A   Clear
10:15 AM 75.2 °F - 60.8 °F 61% 30.17 in 10.0 mi Calm Calm - N/A   Clear
10:35 AM 77.0 °F - 60.8 °F 57% 30.17 in 10.0 mi Calm Calm - N/A   Clear
10:55 AM 77.0 °F - 59.0 °F 54% 30.16 in 10.0 mi Calm Calm - N/A   Clear
11:15 AM 78.8 °F - 59.0 °F 51% 30.16 in 10.0 mi Calm Calm - N/A   Clear
11:35 AM 78.8 °F - 59.0 °F 51% 30.15 in 10.0 mi Calm Calm - N/A   Scattered Clouds
11:55 AM 78.8 °F - 60.8 °F 54% 30.14 in 10.0 mi West 3.5 mph - N/A   Scattered Clouds
12:15 PM 78.8 °F - 59.0 °F 51% 30.14 in 10.0 mi WSW 3.5 mph - N/A   Clear
12:35 PM 80.6 °F 80.8 °F 57.2 °F 45% 30.13 in 10.0 mi Calm Calm - N/A   Scattered Clouds
12:55 PM 80.6 °F 81.1 °F 59.0 °F 48% 30.12 in 10.0 mi Calm Calm - N/A   Scattered Clouds
1:15 PM 80.6 °F 81.1 °F 59.0 °F 48% 30.12 in 10.0 mi South 4.6 mph - N/A   Scattered Clouds
1:35 PM 80.6 °F 81.1 °F 59.0 °F 48% 30.11 in 10.0 mi South 4.6 mph - N/A   Scattered Clouds
1:55 PM 80.6 °F 81.1 °F 59.0 °F 48% 30.10 in 10.0 mi South 4.6 mph - N/A   Scattered Clouds
2:15 PM 80.6 °F 81.1 °F 59.0 °F 48% 30.10 in 10.0 mi Calm Calm - N/A   Mostly Cloudy
2:35 PM 78.8 °F - 60.8 °F 54% 30.10 in 10.0 mi Calm Calm - N/A   Overcast
2:55 PM 80.6 °F 81.1 °F 59.0 °F 48% 30.10 in 10.0 mi Calm Calm - N/A   Overcast
3:15 PM 80.6 °F 80.8 °F 57.2 °F 45% 30.09 in 10.0 mi SW 3.5 mph - N/A   Scattered Clouds
3:35 PM 80.6 °F 81.1 °F 59.0 °F 48% 30.08 in 10.0 mi SW 3.5 mph - N/A   Scattered Clouds
3:55 PM 80.6 °F 81.1 °F 59.0 °F 48% 30.08 in 10.0 mi SW 4.6 mph - N/A   Scattered Clouds
4:15 PM 80.6 °F 81.1 °F 59.0 °F 48% 30.08 in 10.0 mi SSW 3.5 mph - N/A   Scattered Clouds
4:35 PM 80.6 °F 80.8 °F 57.2 °F 45% 30.08 in 10.0 mi Calm Calm - N/A   Clear
4:55 PM 78.8 °F - 59.0 °F 51% 30.08 in 10.0 mi West 3.5 mph - N/A   Scattered Clouds
5:15 PM 77.0 °F - 62.6 °F 61% 30.08 in 10.0 mi Calm Calm - N/A   Scattered Clouds
5:35 PM 77.0 °F - 60.8 °F 57% 30.08 in 10.0 mi Calm Calm - N/A   Clear
5:55 PM 75.2 °F - 62.6 °F 65% 30.08 in 10.0 mi Calm Calm - N/A   Clear
6:15 PM 73.4 °F - 62.6 °F 69% 30.08 in 10.0 mi Calm Calm - N/A   Clear
6:35 PM 71.6 °F - 62.6 °F 73% 30.09 in 10.0 mi Calm Calm - N/A   Clear
6:55 PM 71.6 °F - 62.6 °F 73% 30.09 in 10.0 mi Calm Calm - N/A   Clear
7:15 PM 69.8 °F - 64.4 °F 83% 30.09 in 10.0 mi Calm Calm - N/A   Clear
7:35 PM 69.8 °F - 64.4 °F 83% 30.10 in 10.0 mi Calm Calm - N/A   Clear
7:55 PM 69.8 °F - 64.4 °F 83% 30.10 in 10.0 mi Calm Calm - N/A   Clear
8:15 PM 68.0 °F - 64.4 °F 88% 30.10 in 10.0 mi Calm Calm - N/A   Clear
8:35 PM 68.0 °F - 62.6 °F 83% 30.11 in 10.0 mi Calm Calm - N/A   Clear
8:55 PM 68.0 °F - 62.6 °F 83% 30.12 in 10.0 mi Calm Calm - N/A   Clear
9:15 PM 68.0 °F - 62.6 °F 83% 30.12 in 10.0 mi Calm Calm - N/A   Clear
9:35 PM 68.0 °F - 62.6 °F 83% 30.12 in 10.0 mi Calm Calm - N/A   Clear
9:55 PM 66.2 °F - 62.6 °F 88% 30.13 in 10.0 mi Calm Calm - N/A   Clear
10:15 PM 66.2 °F - 62.6 °F 88% 30.13 in 10.0 mi Calm Calm - N/A   Clear
10:35 PM 66.2 °F - 62.6 °F 88% 30.13 in 10.0 mi Calm Calm - N/A   Clear
10:55 PM 66.2 °F - 62.6 °F 88% 30.13 in 10.0 mi Calm Calm - N/A   Clear
11:15 PM 66.2 °F - 62.6 °F 88% 30.13 in 10.0 mi Calm Calm - N/A   Scattered Clouds
11:35 PM 66.2 °F - 62.6 °F 88% 30.13 in 10.0 mi Calm Calm - N/A   Clear
11:55 PM 66.2 °F - 62.6 °F 88% 30.13 in 10.0 mi Calm Calm - N/A   Scattered Clouds